Location: Unspecified
(0.0000°N, 0.0000°E)
Time: 03:36:48
(UTC+00:00)

AO-109 - Pass Details

Date: 31 October 2021
Orbit: 473 x 523 km, 60.7° (Epoch: 27 November)

Event Time Altitude Azimuth Distance (km) Brightness Sun altitude
Rises 18:36:13 0° 334° (NNW) 2,523 ? -12.7°
Reaches altitude 10° 18:38:21 10° 333° (NNW) 1,654 ? -13.2°
Maximum altitude 18:42:03 88° 247° (WSW) 492 ? -14.1°
Drops below altitude 10° 18:45:50 10° 155° (SSE) 1,691 ? -15.1°
Sets 18:48:01 0° 154° (SSE) 2,585 ? -15.6°
